Time,B instrument,Bx,By,Bz,sigma B,Ion instrument,Status,Tp_par,Tp_perp,carrot,r_sun,clat,clong,earth_he_angle,n_p,vp_x,vp_y,vp_z,vth_p_par,vth_p_perp
1980-01-25 00:15:28,-1,nan,nan,nan,nan,1,3,nan,nan,1691,0.91310465,2.4434824,281.22314,291.86768,nan,572.464,-23.5049,11.372,nan,nan
1980-01-25 00:58:40,-1,nan,nan,nan,nan,1,3,nan,nan,1691,0.91325003,2.4406118,280.82251,291.86157,nan,610.26,21.5091,-15.4504,nan,nan
1980-01-25 01:41:52,-1,nan,nan,nan,nan,1,4,nan,nan,1691,0.91339523,2.4377441,280.42163,291.85522,nan,nan,nan,nan,nan,nan
1980-01-25 02:25:04,-1,nan,nan,nan,nan,1,3,nan,nan,1691,0.9135437,2.4348087,280.02075,291.84888,nan,625.734,-38.4075,-75.1762,nan,nan
1980-01-25 03:08:16,-1,nan,nan,nan,nan,1,3,nan,nan,1691,0.9136886,2.4319401,279.62012,291.84277,nan,606.332,11.024,-23.6658,nan,nan
1980-01-25 03:51:28,-1,nan,nan,nan,nan,1,3,nan,nan,1691,0.91383338,2.4290733,279.21558,291.83667,nan,542.765,7.65051,-9.65277,nan,nan
1980-01-25 04:34:40,-1,nan,nan,nan,nan,1,3,nan,nan,1691,0.91397798,2.4262056,278.81494,291.83057,nan,615.911,15.7662,-28.4375,nan,nan
1980-01-25 05:17:52,-1,nan,nan,nan,nan,1,3,nan,nan,1691,0.91412246,2.4233389,278.41406,291.82422,nan,512.836,-37.9699,16.7632,nan,nan
1980-01-25 06:01:04,-1,nan,nan,nan,nan,1,3,nan,nan,1691,0.91427016,2.4204073,278.01318,291.81787,nan,512.89,-12.4889,3.65889,nan,nan
1980-01-25 06:44:16,-1,nan,nan,nan,nan,1,3,nan,nan,1691,0.91441429,2.4175415,277.61255,291.81177,nan,563.523,-17.8622,98.1225,nan,nan
1980-01-25 07:27:28,-1,nan,nan,nan,nan,1,3,nan,nan,1691,0.91455829,2.4146757,277.21167,291.80542,nan,531.877,-49.4247,84.8304,nan,nan
1980-01-25 08:10:40,-1,nan,nan,nan,nan,1,3,nan,nan,1691,0.91470212,2.4118109,276.81104,291.79932,nan,513.423,6.85956,-4.46987,nan,nan
1980-01-25 08:53:52,-1,nan,nan,nan,nan,1,3,nan,nan,1691,0.91484582,2.408947,276.4104,291.79321,nan,521.081,32.4341,5.29876,nan,nan
1980-01-25 09:08:13,-1,nan,nan,nan,nan,1,4,nan,nan,1691,0.91489589,2.4079485,276.27539,291.79102,nan,nan,nan,nan,nan,nan
1980-01-25 10:36:03,-1,nan,nan,nan,nan,1,3,nan,nan,1691,0.91518939,2.4020882,275.46167,291.77808,nan,495.184,-7.19836,15.9723,nan,nan
1980-01-25 10:36:04,-1,nan,nan,nan,nan,1,3,nan,nan,1691,0.9151566,2.442883,275.38535,291.70175,nan,502.766,-6.58818,10.6785,nan,nan
1980-01-25 10:36:44,-1,nan,nan,nan,nan,1,3,nan,nan,1691,0.91518939,2.4020882,275.45386,291.77808,nan,503.014,-1.20254,11.8421,nan,nan
1980-01-25 10:37:25,-1,nan,nan,nan,nan,1,3,nan,nan,1691,0.91519272,2.4020214,275.4458,291.77783,nan,507.261,0.229601,22.2143,nan,nan
1980-01-25 10:38:05,-1,nan,nan,nan,nan,1,3,nan,nan,1691,0.91519606,2.4019556,275.44189,291.77783,nan,510.456,11.522,30.0766,nan,nan
1980-01-25 10:38:46,-1,nan,nan,nan,nan,1,3,nan,nan,1691,0.91519606,2.4019547,275.43408,291.77783,nan,506.593,2.13445,33.8823,nan,nan
1980-01-25 10:39:26,2,6.895,-2.6,-1.2975,2.2926,1,1,98925.3,180616.0,1691,0.9151994,2.4018888,275.42993,291.77759,4.53355,500.31,6.27966,22.7744,40.4121,54.6054
1980-01-25 10:40:07,2,7.09667,-2.36167,0.618333,0.173349,1,1,60547.2,189401.0,1691,0.91520274,2.4018221,275.42212,291.77759,3.80204,492.517,-0.105584,16.3451,31.6159,55.9177
1980-01-25 10:40:47,2,7.024,-2.45,0.42,0.286189,1,1,81246.0,198966.0,1691,0.91520274,2.4018221,275.41821,291.77759,4.43468,497.907,-0.914245,20.7442,36.6234,57.3122
1980-01-25 10:41:28,2,6.748,-3.262,-0.334,0.257558,1,1,77559.0,205650.0,1691,0.91520602,2.4017553,275.41016,291.77734,4.81159,497.572,7.62405,26.6305,35.7828,58.2669
1980-01-25 10:42:08,2,7.01833,-2.54333,0.656667,0.278014,1,1,76468.9,171803.0,1691,0.91520935,2.4016886,275.4021,291.7771,4.15684,499.049,4.59603,14.5679,35.5304,53.2566
1980-01-25 10:42:49,2,6.81667,-2.885,0.85,0.254847,1,1,69444.9,210761.0,1691,0.91520935,2.4016886,275.39819,291.7771,4.48522,496.259,3.87023,15.7555,33.8593,58.9865
1980-01-25 10:43:29,2,6.805,-2.86667,0.96,0.160356,1,1,75339.5,195928.0,1691,0.91521269,2.4016218,275.39038,291.7771,4.69392,499.256,5.33007,16.0297,35.2671,56.873
1980-01-25 10:44:14,2,6.97,-2.86,0.87,0.104881,1,1,87516.1,262766.0,1691,0.91521603,2.401556,275.38623,291.77686,3.96251,549.783,-26.9597,22.0136,38.0104,65.8631
1980-01-25 10:44:54,1,7.575,-2.7125,3.3875,0.443354,1,1,100495.0,169261.0,1691,0.91521603,2.401556,275.37842,291.77686,4.6701,501.351,4.50692,20.1517,40.7314,52.8611
1980-01-25 10:45:35,1,7.13333,-2.77222,3.02778,0.545294,1,1,107776.0,194094.0,1691,0.91521937,2.4014893,275.37061,291.77686,4.91627,501.254,6.43409,22.3383,42.1812,56.6062
1980-01-25 10:46:15,1,7.2,-2.53333,2.06667,0.676593,1,1,122983.0,197869.0,1691,0.9152227,2.4014225,275.36646,291.77661,4.82124,504.508,5.91576,29.1435,45.0588,57.1541
1980-01-25 10:46:52,1,7.22222,-2.90556,2.91111,0.352636,1,1,114485.0,184333.0,1691,0.9152227,2.4014225,275.35864,291.77661,4.83436,501.833,6.57729,18.6516,43.4742,55.1645
1980-01-25 10:47:32,1,7.10588,-2.94118,3.02941,0.428807,1,1,144077.0,176113.0,1691,0.91522604,2.4013557,275.35449,291.77637,4.55549,504.161,7.97591,26.3083,48.7703,53.9205
1980-01-25 10:48:13,1,7.11111,-2.18889,2.34444,0.976388,1,1,103291.0,190837.0,1691,0.91522938,2.401289,275.34668,291.77637,4.555,497.079,-0.940202,29.5858,41.2943,56.1293
1980-01-25 10:48:53,1,6.20556,-3.03889,2.4,0.872169,1,1,162495.0,202143.0,1691,0.91522938,2.401289,275.34277,291.77637,5.22272,513.829,16.7896,21.8526,51.7938,57.768
1980-01-25 10:49:34,1,6.03529,-3.09412,2.56471,0.336684,1,1,167858.0,199553.0,1691,0.91523272,2.4012232,275.33472,291.77612,5.06344,514.086,8.42114,25.0635,52.6417,57.3967
1980-01-25 10:50:14,1,6.3,-3.13333,2.87222,0.525786,1,1,177160.0,202197.0,1691,0.91523606,2.4011564,275.3269,291.77612,5.08946,507.624,5.98368,26.8138,54.0805,57.7757
1980-01-25 10:50:55,1,5.86667,-4.02778,3.33333,0.426622,1,1,133570.0,191050.0,1691,0.91523606,2.4011564,275.323,291.77612,4.8549,512.844,18.4583,18.54,46.9584,56.1605
1980-01-25 10:51:35,1,5.76316,-4.17895,3.56316,0.508869,1,1,139821.0,176393.0,1691,0.91523933,2.4010897,275.31494,291.77588,4.59038,518.636,24.582,19.3233,48.0446,53.9634
1980-01-25 10:52:16,1,3.36667,-4.31111,4.86111,1.9448,1,1,173834.0,254569.0,1691,0.91524267,2.4010229,275.31079,291.77563,6.40638,526.965,22.657,16.1287,53.5704,64.8278
1980-01-25 10:52:56,1,4.12632,-3.75263,4.21579,1.65417,1,1,275519.0,232376.0,1691,0.91524267,2.4010229,275.30298,291.77563,6.12228,515.555,8.28092,21.4269,67.4425,61.9374
1980-01-25 10:53:37,1,3.78333,-4.8,3.63333,0.756637,1,1,230900.0,276585.0,1691,0.91524601,2.4009562,275.29907,291.77563,7.02733,544.054,26.6041,19.3213,61.7405,67.5729
1980-01-25 10:54:17,1,5.075,-3.815,3.29,0.646568,1,1,324572.0,236038.0,1691,0.91524935,2.4008894,275.29102,291.77539,7.41675,517.492,11.6315,15.3193,73.2004,62.4236
1980-01-25 11:30:30,2,2.08,-6.29,1.02,0.0,1,1,207596.0,179520.0,1691,0.91536915,2.3984938,274.95386,291.77026,5.99052,531.081,31.4947,16.6761,58.542,54.4396
1980-01-25 11:31:11,1,2.52105,-5.71053,2.69474,1.75348,1,1,115204.0,136853.0,1691,0.91537249,2.398427,274.94971,291.77002,5.73783,526.757,29.4944,15.2965,43.6105,47.5318
1980-01-25 11:31:51,1,0.644444,-5.55,0.277778,0.549775,1,1,263640.0,193403.0,1691,0.91537249,2.398427,274.94189,291.77002,6.08936,542.048,22.5309,20.622,65.9726,56.5053
1980-01-25 11:32:32,1,0.98,-5.4,0.44,0.353553,1,1,142173.0,181133.0,1691,0.91537583,2.3983603,274.93799,291.77002,5.74301,539.18,24.0742,29.0834,48.447,54.6836
1980-01-25 11:33:13,1,1.45556,-4.69444,1.07778,0.47052,1,1,221138.0,197737.0,1691,0.91537911,2.3982944,274.92993,291.76978,6.577,534.312,19.8109,26.544,60.4213,57.1349
1980-01-25 11:33:53,1,1.0,-5.07222,0.988889,0.646954,1,1,144793.0,168645.0,1691,0.91537911,2.3982944,274.92212,291.76978,6.29827,538.855,27.1213,21.8735,48.8912,52.7648
1980-01-25 11:34:34,1,1.62632,-4.09474,1.67368,0.832977,1,1,246554.0,261322.0,1691,0.91538244,2.3982277,274.91821,291.76978,7.3379,538.248,17.2863,23.6383,63.799,65.6819
1980-01-25 11:35:14,1,1.82632,-3.86316,1.97368,0.899061,1,1,194941.0,246300.0,1691,0.91538578,2.3981609,274.91016,291.76953,7.50766,534.792,21.7423,17.0312,56.7296,63.7661
1980-01-25 11:35:55,1,1.42778,-4.22778,0.533333,0.724654,1,1,220545.0,203598.0,1691,0.91538578,2.3981609,274.90625,291.76953,6.75154,539.261,14.8396,36.605,60.3401,57.9755
1980-01-25 11:36:35,1,2.01053,-3.58421,2.05263,0.524682,1,1,256729.0,284066.0,1691,0.91538912,2.3980942,274.89844,291.76953,7.71519,532.727,15.7944,17.106,65.1022,68.4806
1980-01-25 11:37:16,1,1.77778,-3.72778,2.27778,0.551681,1,1,259307.0,303098.0,1691,0.91539246,2.3980284,274.89038,291.76929,7.58377,535.723,14.3868,19.2272,65.4282,70.7375
1980-01-25 11:37:56,1,3.45789,-2.93158,3.91579,1.74948,1,1,233630.0,287357.0,1691,0.91539246,2.3980284,274.88647,291.76929,6.65168,531.15,18.1992,12.2895,62.1044,68.8762
1980-01-25 11:38:37,1,4.27647,-2.81176,2.48235,0.864085,1,1,251558.0,280632.0,1691,0.9153958,2.3979616,274.87842,291.76904,7.28891,529.495,14.0544,19.575,64.4432,68.0655
1980-01-25 11:39:17,1,3.87778,-3.39444,2.37778,0.542201,1,1,217124.0,267209.0,1691,0.91539907,2.3978949,274.87451,291.76904,7.21414,531.197,17.531,16.8378,59.8704,66.4176
1980-01-25 11:39:58,1,3.05789,-3.91053,1.26316,0.505153,1,1,212737.0,253733.0,1691,0.91539907,2.3978949,274.8667,291.76904,7.31726,525.376,24.954,17.2589,59.2624,64.7211
1980-01-25 11:40:38,1,3.08333,-3.77222,1.3,0.360641,1,1,191691.0,261623.0,1691,0.91540241,2.3978281,274.86255,291.7688,7.38629,528.956,21.386,17.9148,56.2548,65.7198
1980-01-25 11:41:19,1,3.29444,-4.75,0.855556,0.592494,1,1,214914.0,210142.0,1691,0.91540575,2.3977613,274.85474,291.7688,6.51024,528.553,25.9832,22.8361,59.5649,58.8999
1980-01-25 11:41:59,1,4.47778,-4.78333,1.84444,0.443506,1,1,162964.0,175761.0,1691,0.91540575,2.3977613,274.84692,291.7688,5.83895,518.203,27.9038,15.2781,51.8685,53.8666
1980-01-25 11:42:40,1,4.96111,-4.0,1.41111,0.65746,1,1,158393.0,182785.0,1691,0.91540909,2.3976955,274.84277,291.76855,5.91433,513.508,24.2399,19.0817,51.1359,54.9323
1980-01-25 11:43:20,1,3.93333,-4.73889,1.11111,0.593509,1,1,171086.0,187709.0,1691,0.91541243,2.3976288,274.83472,291.76831,6.23815,528.948,28.6823,19.1219,53.1453,55.6673
1980-01-25 11:44:01,1,3.94211,-4.6,1.77368,0.867639,1,1,165411.0,222368.0,1691,0.9154157,2.397562,274.83081,291.76831,7.08256,526.147,30.3902,12.3718,52.2565,60.5891
1980-01-25 11:45:22,1,3.41667,-6.07222,1.32778,0.376919,1,1,152922.0,167766.0,1691,0.91541904,2.3974953,274.81494,291.76807,6.19241,526.617,23.0889,15.9097,50.2451,52.6271
1980-01-25 11:46:02,1,3.01667,-5.99444,0.794444,0.458493,1,1,125234.0,171954.0,1691,0.91542238,2.3974295,274.81104,291.76807,6.10531,529.993,27.624,20.5822,45.4694,53.28
1980-01-25 11:46:43,1,3.17895,-5.13684,-0.0157895,0.538079,1,1,208774.0,203461.0,1691,0.91542238,2.3974285,274.80322,291.76807,6.17937,531.811,25.4596,25.2866,58.7079,57.9561
1980-01-25 11:47:23,1,3.14737,-4.86316,-0.0789474,0.516219,1,1,163693.0,191487.0,1691,0.91542572,2.3973627,274.79907,291.76782,6.19826,527.565,27.4868,29.1125,51.9844,56.2247
1980-01-25 11:48:04,1,3.51111,-4.54444,-0.166667,0.560864,1,1,163906.0,216120.0,1691,0.91542906,2.397296,274.79126,291.76782,6.78377,521.03,21.7206,23.8141,52.0181,59.7317
1980-01-25 11:48:44,1,2.55556,-4.48889,-0.955556,0.715956,1,1,182545.0,204124.0,1691,0.91542906,2.397296,274.78735,291.76782,6.30462,532.192,27.0731,31.4097,54.8963,58.0504
1980-01-25 11:49:25,1,1.81667,-4.53889,-2.18333,0.929539,1,1,102014.0,151016.0,1691,0.91543239,2.3972292,274.7793,291.76758,5.3622,535.374,28.2133,41.9958,41.0382,49.931
1980-01-25 11:50:05,1,3.07895,-5.24211,-0.557895,1.68154,1,1,145220.0,170476.0,1691,0.91543567,2.3971624,274.77124,291.76733,5.82892,521.38,33.0941,18.2414,48.9633,53.0505
1980-01-25 11:50:46,1,3.03158,-5.97895,0.431579,1.09721,1,1,175875.0,198007.0,1691,0.91543567,2.3971624,274.76733,291.76733,6.9275,527.961,31.4072,20.0753,53.8839,57.174
1980-01-25 11:51:26,-1,nan,nan,nan,nan,1,-3,nan,nan,1691,0.91543901,2.3970966,274.75952,291.76733,nan,532.039,34.1525,10.6532,nan,nan
1980-01-25 11:52:07,1,0.722222,2.08333,-4.93889,0.613681,1,1,81086.3,154918.0,1691,0.91544235,2.3970299,274.75537,291.76709,5.09167,537.779,-3.36143,44.7246,36.5874,50.5718
1980-01-25 11:53:28,1,2.14737,-0.984211,-3.55263,0.523148,1,1,248398.0,230570.0,1691,0.91544569,2.3969631,274.74365,291.76709,6.20325,528.416,9.40938,46.3051,64.0371,61.6964
1980-01-25 11:54:08,1,1.80526,-0.931579,-3.42632,0.638558,1,1,234055.0,177294.0,1691,0.91544902,2.3968964,274.7356,291.76685,5.90046,529.842,17.2994,47.2359,62.1609,54.1009
1980-01-25 11:56:05,1,0.735714,-1.97857,-3.17143,0.710346,1,1,108474.0,143855.0,1691,0.9154231,2.4377463,274.63931,291.69009,5.41272,533.906,12.8088,46.6047,42.3175,48.7326
1980-01-25 11:56:51,1,1.69375,-1.875,-3.91875,0.519841,1,1,147404.0,194232.0,1691,0.91545564,2.3967638,274.71191,291.7666,6.22114,540.823,19.7578,45.4808,49.3302,56.6263
1980-01-25 11:57:26,1,1.975,-2.2375,-3.8125,0.623749,1,1,138992.0,216230.0,1691,0.91545898,2.396697,274.70386,291.76636,5.78094,535.096,11.5232,41.8472,47.9019,59.747
1980-01-25 11:57:30,1,1.86667,-2.33333,-3.76667,0.585377,1,1,81565.7,155687.0,1691,0.91545898,2.396697,274.70386,291.76636,4.84204,532.218,16.1795,43.1943,36.6954,50.6973
1980-01-25 11:58:11,1,1.54706,-2.76471,-3.74706,0.565869,1,1,89001.2,142834.0,1691,0.91546232,2.3966303,274.69604,291.76636,4.85039,532.146,13.544,42.6842,38.3315,48.5594
1980-01-25 11:58:51,1,1.88,-2.87,-3.76,0.372961,1,1,116266.0,173234.0,1691,0.91546232,2.3966303,274.69214,291.76636,4.21424,585.916,-72.8165,47.0256,43.8111,53.478
1980-01-25 11:59:32,1,1.865,-3.0,-3.8,0.629504,1,1,94496.1,133286.0,1691,0.91546565,2.3965635,274.68408,291.76611,4.6547,533.818,15.7616,41.1986,39.4971,46.9084
1980-01-25 12:00:13,1,1.62632,-3.17895,-3.77368,0.64176,1,1,93707.3,151555.0,1691,0.91546899,2.3964977,274.68018,291.76611,4.77251,536.056,17.9011,38.6742,39.3319,50.02
1980-01-25 12:00:53,1,1.63684,-3.17368,-3.51579,0.63769,1,1,112963.0,136459.0,1691,0.91546899,2.3964977,274.67236,291.76611,4.71007,534.783,17.8773,40.6384,43.1842,47.4634
1980-01-25 12:02:14,1,1.67895,-3.3,-3.9,0.244043,1,1,109818.0,150705.0,1691,0.91547561,2.3963642,274.66016,291.76563,5.20974,532.643,15.7839,39.1475,42.5788,49.8795
1980-01-25 12:02:55,1,1.67895,-3.43158,-3.89474,0.309678,1,1,83961.6,175887.0,1691,0.91547561,2.3963642,274.65234,291.76563,5.47227,532.766,26.2959,32.7517,37.2305,53.8859
1980-01-25 12:04:16,1,-0.457895,-5.25789,-2.80526,1.89267,1,1,110913.0,138477.0,1691,0.91548222,2.3962307,274.64038,291.76538,6.19567,544.148,27.7924,19.0955,42.7908,47.8131
1980-01-25 12:04:56,1,-1.43684,-6.36316,-2.21053,0.913245,1,1,100464.0,136525.0,1691,0.91548222,2.3962307,274.63647,291.76538,5.82433,544.64,23.8993,27.055,40.7251,47.4749
1980-01-25 12:06:17,1,-0.521053,-4.87368,-3.04737,0.397081,1,1,123967.0,167173.0,1691,0.9154889,2.3960981,274.62451,291.76514,6.17382,533.457,20.793,28.1701,45.2388,52.534
1980-01-25 12:06:58,1,-1.87368,-4.87895,-2.93684,0.475319,1,1,132305.0,180773.0,1691,0.9154889,2.3960981,274.6167,291.76514,6.20899,541.259,21.4411,29.9618,46.7354,54.6292
1980-01-25 12:07:38,1,0.363158,-4.57895,-4.40526,0.686151,1,1,90377.7,160444.0,1691,0.91549224,2.3960314,274.60864,291.76489,5.88973,538.852,19.5823,29.9588,38.6268,51.4659
1980-01-25 12:08:19,1,0.373684,-4.47368,-3.97368,0.650932,1,1,153705.0,180742.0,1691,0.91549551,2.3959646,274.60474,291.76489,6.12889,536.85,12.3402,34.7137,50.3735,54.6245
1980-01-25 12:08:59,1,0.657895,-4.25789,-4.83158,0.365174,1,1,79063.7,174732.0,1691,0.91549551,2.3959646,274.59692,291.76489,5.51725,535.374,15.9515,32.6745,36.1282,53.7087
1980-01-25 12:09:40,1,0.288889,-4.36111,-4.25,0.592807,1,1,137186.0,177294.0,1691,0.91549885,2.3958979,274.59277,291.76465,6.41844,536.865,14.7848,31.7964,47.5896,54.1009
1980-01-25 12:10:20,1,-1.16316,-5.46842,-3.26842,0.572452,1,1,76350.6,114227.0,1691,0.91550219,2.3958321,274.58496,291.76465,5.3805,540.734,19.4072,32.669,35.5029,43.4253
1980-01-25 12:11:01,1,3.81111,2.82222,-3.54444,1.09528,1,1,248839.0,215100.0,1691,0.91550553,2.3957653,274.5769,291.7644,6.79808,517.423,-0.429318,37.6862,64.094,59.5906
1980-01-25 12:11:41,1,3.97895,2.1,-3.76316,0.625586,1,1,300318.0,200774.0,1691,0.91550553,2.3957653,274.573,291.7644,6.52122,524.906,4.87304,36.5102,70.4123,57.5721
1980-01-25 12:12:22,1,3.62632,0.815789,-3.95789,0.568859,1,1,227246.0,183740.0,1691,0.91550881,2.3956985,274.56494,291.76416,6.11914,519.956,5.54638,42.3846,61.25,55.0756
1980-01-25 12:13:02,1,3.6,-0.0111111,-3.90556,0.524257,1,1,276835.0,164702.0,1691,0.91551214,2.3956318,274.56104,291.76416,5.69416,523.706,14.292,37.7434,67.6034,52.1444
1980-01-25 12:13:43,1,4.32353,-0.664706,-3.37647,0.599019,1,1,258116.0,182131.0,1691,0.91551214,2.3956318,274.55322,291.76416,5.45322,524.231,21.6094,39.998,65.2778,54.834
1980-01-25 12:14:23,1,4.24444,-0.394444,-3.6,0.463914,1,1,174719.0,177621.0,1691,0.91551548,2.395566,274.54907,291.76392,5.88239,516.536,12.9435,43.7187,53.7066,54.1508
1980-01-25 12:15:04,1,4.97368,0.168421,-3.34737,0.660353,1,1,173906.0,173716.0,1691,0.91551882,2.3954992,274.54126,291.76392,5.66872,513.769,18.2038,43.0847,53.5815,53.5523
1980-01-25 12:15:44,1,5.47895,0.278947,-3.4,0.358591,1,1,149769.0,172097.0,1691,0.91551882,2.3954992,274.53345,291.76392,5.32625,512.588,8.74907,46.2822,49.7243,53.3021
1980-01-25 12:16:25,1,5.6,-0.288889,-3.07778,0.726058,1,1,214676.0,181321.0,1691,0.9155221,2.3954325,274.5293,291.76367,6.07985,511.987,16.2691,40.4572,59.532,54.7119
1980-01-25 12:17:05,1,6.10556,-0.416667,-2.8,0.450583,1,1,197984.0,186903.0,1691,0.91552544,2.3953657,274.52124,291.76343,5.89264,514.056,12.992,45.1765,57.1707,55.5476
1980-01-25 12:17:46,1,5.98333,-0.727778,-2.62778,0.510839,1,1,207775.0,198215.0,1691,0.91552544,2.3953657,274.51733,291.76343,6.35882,515.638,13.1314,46.6784,58.5672,57.204
1980-01-25 12:18:26,1,6.43684,-0.973684,-2.14211,0.361821,1,1,214304.0,208789.0,1691,0.91552877,2.395299,274.50952,291.76343,6.24865,514.482,17.4558,46.2332,59.4803,58.7099
1980-01-25 12:19:07,1,6.29444,-1.37222,-1.97778,0.454402,1,1,159164.0,182621.0,1691,0.91553205,2.3952332,274.50146,291.76318,5.89749,511.641,18.6182,46.0786,51.2603,54.9077
1980-01-25 12:19:47,1,6.18889,-2.04444,-1.74444,0.320301,1,1,253395.0,196343.0,1691,0.91553205,2.3952332,274.49756,291.76318,6.33387,514.125,14.2575,41.6486,64.6781,56.9331
1980-01-25 12:20:28,1,5.75882,-2.59412,-1.69412,0.487491,1,1,216949.0,189681.0,1691,0.91553539,2.3951664,274.48975,291.76318,5.88642,512.566,22.5375,41.2378,59.8462,55.959
1980-01-25 12:21:08,1,5.19474,-2.15789,-3.09474,0.576982,1,1,185473.0,165386.0,1691,0.91553873,2.3950996,274.4856,291.76294,5.15624,518.909,21.7188,39.1702,55.3348,52.2525
1980-01-25 12:21:49,1,4.30556,-1.35,-3.63333,0.415962,1,1,268328.0,180973.0,1691,0.91553873,2.3950996,274.47778,291.76294,6.25088,517.639,14.064,44.2362,66.5566,54.6595
1980-01-25 12:22:29,1,4.70526,-2.08421,-2.81053,0.856327,1,1,175261.0,152688.0,1691,0.91554207,2.3950329,274.47363,291.7627,4.9927,514.607,18.8994,49.3785,53.7899,50.2065
1980-01-25 12:23:10,1,3.55882,-1.58824,-3.27647,0.771149,1,1,174472.0,168406.0,1691,0.91554534,2.3949671,274.46582,291.7627,5.50068,517.786,16.5699,42.7696,53.6687,52.7275
1980-01-25 12:23:50,1,2.78947,-2.03158,-3.36316,0.836759,1,1,190703.0,180463.0,1691,0.91554534,2.3949661,274.45801,291.7627,5.9895,525.523,14.7694,41.3225,56.1095,54.5823
1980-01-25 12:25:11,1,3.98421,-2.04737,-3.22105,0.780156,1,1,145128.0,151561.0,1691,0.91555202,2.3948336,274.44604,291.76245,5.62026,525.677,18.9097,41.2977,48.9479,50.021
1980-01-25 12:25:52,1,3.36667,-2.41667,-3.57222,0.390236,1,1,163281.0,142382.0,1691,0.91555202,2.3948336,274.44214,291.76245,5.5755,529.388,15.5324,42.3597,51.9189,48.4825
1980-01-25 12:26:32,1,3.73333,-3.65,-2.61667,0.710634,1,1,141910.0,140150.0,1691,0.91555536,2.3947668,274.43408,291.76221,5.64204,528.868,10.0572,39.0888,48.4021,48.1011
1980-01-25 12:27:13,1,4.64737,-2.49474,-2.86316,0.547773,1,1,174422.0,159135.0,1691,0.91555864,2.3947001,274.42993,291.76196,5.67024,529.026,11.8355,37.7726,53.6609,51.2555
1980-01-25 12:27:53,1,4.76842,-2.25789,-2.97368,0.660311,1,1,165198.0,166606.0,1691,0.91555864,2.3947001,274.42212,291.76196,5.66511,522.716,13.3415,33.7429,52.2229,52.4449
1980-01-25 12:28:34,1,4.07778,-2.66667,-3.19444,0.655767,1,1,166780.0,157089.0,1691,0.91556197,2.3946342,274.41431,291.76196,5.54893,526.483,18.1506,35.5602,52.4722,50.9249
1980-01-25 12:29:14,1,3.95,-1.87778,-3.60556,0.376058,1,1,167127.0,147680.0,1691,0.91556531,2.3945675,274.41016,291.76172,5.71427,531.838,18.8289,40.103,52.5268,49.3764
1980-01-25 12:29:55,1,3.24211,-2.21053,-3.21579,0.869648,1,1,197559.0,173091.0,1691,0.91556531,2.3945675,274.40234,291.76172,6.32336,523.903,20.9891,39.3431,57.1093,53.4558
1980-01-25 12:30:35,1,4.14211,-1.28947,-3.30526,1.57235,1,1,176577.0,139016.0,1691,0.91556865,2.3945007,274.39844,291.76172,4.79693,543.104,30.4588,38.9345,53.9914,47.906
1980-01-25 12:31:16,1,4.36667,-0.338889,-3.48889,1.01381,1,1,164758.0,177831.0,1691,0.91557193,2.394434,274.39038,291.76147,5.7295,515.337,7.94437,47.6918,52.1533,54.1829
1980-01-25 12:31:56,1,4.50556,-0.288889,-3.43889,2.07886,1,1,167327.0,160585.0,1691,0.91557193,2.394434,274.38647,291.76147,5.13221,523.395,21.8505,41.2794,52.5583,51.4885
1980-01-25 12:32:37,1,7.06316,-1.83158,-2.17895,1.24809,1,1,103515.0,137774.0,1691,0.91557527,2.3943672,274.37842,291.76123,5.00235,516.221,8.94869,39.2981,41.339,47.6916
1980-01-25 12:33:17,1,6.47895,-3.8,-1.62105,0.558341,1,1,84996.4,152928.0,1691,0.9155786,2.3943014,274.37061,291.76123,5.15001,519.699,21.9463,37.1493,37.4592,50.2459
1980-01-25 12:33:58,1,6.61667,-4.17222,-0.455556,1.11917,1,1,84454.0,148459.0,1691,0.9155786,2.3943014,274.3667,291.76123,4.56034,515.8,26.0003,32.1585,37.3395,49.5064
1980-01-25 12:35:19,1,3.56,1.58,-3.16,0.287054,1,1,232593.0,196176.0,1691,0.91558522,2.3941679,274.35474,291.76099,7.43583,532.681,4.6626,32.6615,61.9664,56.909
1980-01-25 12:35:59,1,2.24737,1.67368,-2.88947,0.46124,1,1,247356.0,200348.0,1691,0.91558522,2.3941679,274.34692,291.76099,7.75033,544.052,2.02972,29.0105,63.9026,57.5109
1980-01-25 12:36:40,1,1.6,1.03333,-3.15,0.752219,1,1,208974.0,198855.0,1691,0.91558856,2.3941011,274.33887,291.76074,7.25883,538.988,11.6324,32.1816,58.736,57.2963
1980-01-25 12:38:01,1,-0.661111,-2.91111,-2.41111,0.542542,1,1,173927.0,185100.0,1691,0.91559517,2.3939686,274.3269,291.7605,6.87711,539.587,15.3493,31.8071,53.5848,55.2792
1980-01-25 12:38:41,-1,nan,nan,nan,nan,1,-3,nan,nan,1691,0.91559517,2.3939686,274.323,291.7605,nan,536.466,21.1952,37.2242,nan,nan
1980-01-25 12:39:22,1,4.02105,-3.14211,-1.74737,1.20099,1,1,169625.0,204347.0,1691,0.91559851,2.3939018,274.31494,291.76025,7.11398,534.988,33.5677,34.4864,52.9179,58.082
1980-01-25 12:40:02,1,5.32632,-2.85789,-1.65789,0.722185,1,1,146745.0,171255.0,1691,0.91560185,2.3938351,274.31104,291.76025,5.85726,519.869,20.7065,31.5499,49.2198,53.1716
1980-01-25 12:40:43,1,4.08889,-3.72778,-2.1,0.642646,1,1,147972.0,180167.0,1691,0.91560185,2.3938351,274.30322,291.76025,5.56844,528.179,23.2266,34.4767,49.4251,54.5376
1980-01-25 12:41:23,2,3.46,-4.255,-4.61833,0.902647,1,1,162509.0,164858.0,1691,0.91560519,2.3937683,274.29517,291.76001,5.63915,524.647,20.477,36.4566,51.7961,52.1691
1980-01-25 12:44:46,2,2.68833,-4.48333,-5.11,0.513228,1,1,117983.0,100147.0,1691,0.91561514,2.393569,274.26343,291.75952,5.16267,527.29,25.1028,41.763,44.1334,40.6608
1980-01-25 12:45:26,2,2.63833,-4.20333,-5.68667,0.367775,1,1,158578.0,112963.0,1691,0.91561848,2.3935022,274.25952,291.75952,4.97231,536.192,23.1966,41.9032,51.1658,43.1843
1980-01-25 12:46:07,2,3.42833,-4.315,-5.09667,0.455479,1,1,127437.0,118138.0,1691,0.91562176,2.3934364,274.25146,291.75928,5.34641,529.691,21.1793,42.0087,45.8675,44.1623
1980-01-25 12:46:47,1,4.47368,-3.26316,-2.44211,0.35743,1,1,191998.0,202460.0,1691,0.91562176,2.3934355,274.24756,291.75928,6.79107,531.573,18.5439,37.7647,56.2998,57.8132
1980-01-25 12:47:28,1,3.42778,-2.95556,-2.9,0.535441,1,1,202012.0,205700.0,1691,0.9156251,2.3933697,274.2395,291.75903,6.49209,536.587,17.4797,42.3193,57.7493,58.274